Location: Casa Rossa
(45.2389°N, 12.2056°E)
Time: 01:21:32
(UTC+00:00)

Daily predictions for brighter satellites

Satellite Brightness Start Highest point End
(mag) Time Altitude Azimuth Time Altitude Azimuth Time Altitude Azimuth
CZ-4 R/B 4.1 00:03:52 10° N 00:08:32 58° WNW 00:09:37 46° WSW
SL-8 R/B 3.8 00:08:40 52° SE 00:08:40 52° SE 00:13:17 10° ENE
Cosmos 2242 Rocket 3.7 00:05:52 10° N 00:10:26 71° E 00:11:25 52° SE
Lacrosse 5 2.5 00:10:40 25° W 00:13:23 53° NW 00:18:24 10° NE
SL-16 R/B 3.2 00:11:55 18° SE 00:16:22 52° ENE 00:22:24 10° N
Cosmos 1602 3.6 00:17:36 72° ESE 00:17:44 73° E 00:21:35 10° NNE
BREEZE-M DEB (TANK) 3.4 00:12:27 10° WSW 00:21:03 89° N 00:24:23 10° E
Meteor 1-4 Rocket 3.0 00:18:12 10° NNW 00:21:27 49° WNW 00:21:27 49° WNW
Okean 1 3.2 00:19:41 10° N 00:23:42 84° E 00:24:06 70° SSE
Cosmos 1933 Rocket 3.4 00:23:25 64° SSW 00:24:02 79° W 00:28:24 10° N
Meteor 1-14 Rocket 4.4 00:22:26 40° SSE 00:24:25 66° E 00:30:02 10° NNE
CZ-4C R/B 4.4 00:20:47 10° WNW 00:25:44 19° WSW 00:26:33 18° WSW
Iridium 4 Rocket 3.9 00:24:13 42° SW 00:25:52 58° W 00:31:11 10° N
MOZ.5/SAFIR/RUBIN 5/SL-8 4.0 00:25:51 38° SE 00:27:38 70° ENE 00:32:24 10° N
Cosmos 1869 Rocket 4.3 00:27:34 36° SE 00:28:40 44° E 00:32:49 10° NNE
Helios 1B rocket 3.4 00:28:32 10° N 00:32:19 36° WNW 00:33:01 33° W
USA 267 4.0 00:32:12 31° SW 00:32:24 31° SW 00:38:06 10° WNW
Cosmos 1697 Rocket 3.9 00:27:54 10° NNW 00:33:12 40° NE 00:38:26 10° SE
NOSS 2-1 (C) 4.3 00:28:19 10° NW 00:33:36 75° SW 00:39:01 19° SSE
Cosmos 1437 Rocket 3.6 00:32:40 10° N 00:36:35 47° ENE 00:38:00 32° SE
Cosmos 1703 Rocket 3.5 00:32:34 10° N 00:37:03 86° W 00:38:05 53° S
NOSS 2-1 (D) 4.4 00:33:03 10° NW 00:38:24 70° SW 00:43:45 19° SSE
SeaSat 1 3.2 00:38:40 10° NE 00:43:20 41° ESE 00:45:02 31° SSE
Cosmos 2082 Rocket 3.7 00:40:40 18° SE 00:43:28 27° ESE 00:48:11 10° NE
Cosmos 614 Rocket 3.8 00:43:22 44° SSW 00:45:00 89° ESE 00:50:10 10° NNE
Aureole 1 Rocket 4.3 00:43:26 29° SE 00:45:13 40° E 00:50:37 10° NNE
CZ-2D R/B 2.3 00:41:27 10° NNE 00:46:48 66° ESE 00:49:08 34° S
CZ-4B R/B 4.4 00:42:12 10° NNE 00:46:55 38° E 00:49:15 24° SSE
Cosmos 1833 Rocket 3.3 00:44:54 30° SSE 00:47:11 47° ESE 00:52:33 10° NE
Cosmos 2100 Rocket 4.0 00:45:06 36° SSW 00:47:52 79° W 00:54:09 10° N
DELTA 2 DEB (DPAF) 4.0 00:46:50 48° S 00:48:01 74° WSW 00:52:30 10° NNW
Cosmos 1184 Rocket 3.8 00:49:58 34° WNW 00:49:58 34° WNW 00:52:51 10° N
COSMOS 2406 3.2 00:49:39 37° S 00:52:02 76° ESE 00:57:49 10° NNE
Cosmos 1656 3.5 00:47:41 10° NNW 00:53:09 87° WSW 00:56:32 24° SSE
Cosmos 405 Rocket 2.7 00:52:44 56° WSW 00:53:14 63° WNW 00:56:59 10° N
Cosmos 1140 Rocket 3.7 00:52:12 35° S 00:54:15 63° ESE 00:59:26 10° NNE
Cosmos 1459 Rocket 3.9 00:52:49 35° SSW 00:55:32 75° W 01:01:44 10° N
Cosmos 407 Rocket 3.5 00:55:13 38° SSW 00:57:21 86° ESE 01:02:45 10° NNE
Cosmos 1500 3.1 00:58:26 54° S 00:59:14 81° E 01:03:02 10° N
Cosmos 220 Rocket 3.8 00:57:12 10° NNW 01:01:28 78° WSW 01:02:54 40° S
Cosmos 1802 Rocket 4.0 01:03:01 31° SSW 01:06:17 76° W 01:12:46 10° N
Cosmos 1023 Rocket 4.4 01:07:58 35° SSW 01:10:16 88° ESE 01:15:34 10° NNE
CZ-4C R/B 3.3 01:11:31 46° SW 01:12:14 56° WSW 01:15:53 10° NNW
Meteor 1-13 Rocket 4.4 01:08:26 10° N 01:14:12 75° ENE 01:18:39 17° SSE
Cosmos 1666 3.2 01:13:11 30° SSE 01:14:42 51° E 01:18:21 10° NNE
Cosmos 1515 4.4 01:11:56 10° NNW 01:15:26 35° W 01:15:49 34° WSW
ARIANE 5 R/B 4.1 01:14:22 10° NE 01:18:46 29° E 01:23:10 10° SSE
Okean 1-7 3.9 01:14:47 10° NNW 01:18:48 35° W 01:19:46 31° WSW
Cosmos 676 Rocket 4.2 01:16:40 28° S 01:19:24 67° ESE 01:24:40 10° NNE
Cosmos 1725 Rocket 4.0 01:21:06 26° SSW 01:24:47 79° W 01:31:04 10° N
ADEOS II 2.5 01:19:51 10° NNE 01:25:04 58° E 01:28:37 20° S
NPP 3.7 01:20:33 10° N 01:25:55 70° WNW 01:28:51 27° SSW
SL-08 R/B 4.4 01:23:45 10° SE 01:28:16 46° ENE 01:32:54 10° N
Resurs 1-4 Rocket 2.4 01:24:21 10° N 01:29:33 54° WNW 01:32:21 26° SW
Cosmos 1733 Rocket 3.2 01:29:34 25° S 01:32:01 68° E 01:36:19 10° NNE
ISS -2.3 01:29:17 10° NW 01:32:29 39° NNE 01:35:40 10° E
AQUA 3.9 01:29:08 10° N 01:33:53 67° WNW 01:36:23 27° SSW
UNK 4.4 01:33:05 29° SW 01:34:36 36° W 01:38:54 10° NNW
Abrixas rocket 2.2 01:35:24 10° WNW 01:38:17 66° NNE 01:41:09 10° E
Tsikada Rocket 4.1 01:33:36 10° NNW 01:39:59 70° W 01:45:05 17° S
ATLAS 5 CENTAUR R/B 2.8 01:37:30 10° NNW 01:43:07 65° NE 01:49:39 10° SE
Gbstr 26 Del rocket 3.1 01:40:58 10° WNW 01:45:09 82° NNE 01:50:14 10° ESE
Cosmos 1242 Rocket 4.0 01:44:28 10° N 01:47:41 35° ENE 01:50:53 10° SE
Cosmos 2369 3.7 01:42:39 10° NNW 01:48:19 64° WSW 01:53:58 10° S
Cosmos 1980 Rocket 2.3 01:43:27 10° NNW 01:49:11 81° ENE 01:54:52 10° SSE
SL-8 R/B 4.0 01:46:36 12° W 01:51:07 67° NNW 01:55:54 10° ENE
deb Kosmos-1763 3.9 01:50:14 27° SSW 01:52:03 87° ESE 01:55:41 10° NNE
Okean 3 4.3 01:53:13 10° NNW 01:56:58 32° W 01:58:48 22° SW
Cosmos 1378 3.9 01:53:25 10° N 01:57:07 53° ENE 02:00:47 10° SSE
Lacrosse 5 4.0 01:53:14 10° WNW 01:57:19 24° NNW 02:01:25 10° NE
IRS-P3 4.1 01:52:19 10° NNE 01:57:41 89° E 02:01:59 16° SSW
SL-16 R/B 3.5 01:57:01 19° SW 02:00:12 29° W 02:05:35 10° NW
IDEFIX/ARIANE 42P 3.6 01:55:44 10° NNE 02:00:38 41° E 02:05:31 10° SSE
BREEZE-M DEB (TANK) 3.9 01:59:53 10° W 02:03:00 47° SSW 02:13:37 10° SE
Cosmos 1536 3.3 02:02:53 22° SW 02:05:12 45° WNW 02:09:07 10° N
Cosmos 1356 3.4 02:04:45 22° SSW 02:06:51 72° W 02:10:18 10° N
Meteor 1-11 Rocket 4.1 02:04:11 18° SW 02:08:02 49° WNW 02:13:24 10° N
Cosmos 2278 3.7 02:03:07 10° NNW 02:08:47 65° WSW 02:14:25 10° SSE
H-2A R/B 3.2 02:05:18 10° SE 02:09:28 45° ENE 02:13:35 10° N
SL-16 R/B 3.7 02:06:08 10° NNW 02:11:29 40° NE 02:16:46 10° SE
Cosmos 921 Rocket 3.4 02:09:17 10° NNW 02:13:27 42° WSW 02:17:11 12° S
Cosmos 1975 4.1 02:11:08 10° SSE 02:14:51 39° E 02:18:35 10° NNE
Cosmos 1697 Rocket 3.3 02:12:03 10° NW 02:17:05 34° WSW 02:22:04 10° SSW
CZ-2C R/B 4.0 02:13:29 10° NNE 02:17:21 40° E 02:21:10 10° S
Cosmos 1263 4.1 02:16:22 10° N 02:19:22 88° ENE 02:22:30 10° S
ERS-1 4.5 02:14:44 10° NNE 02:19:51 81° WNW 02:24:35 11° SSW
SeaSat 1 3.6 02:16:22 10° N 02:20:44 33° NW 02:24:48 11° WSW
Cosmos 1378 Rocket 3.6 02:19:05 10° NNW 02:23:27 61° W 02:27:48 10° S
Cosmos 1842 4.4 02:20:11 10° N 02:24:00 45° ENE 02:27:47 10° SSE
SL-27 R/B 3.9 02:21:24 10° S 02:24:36 34° ESE 02:27:47 10° NE
IRS-1D 4.3 02:21:11 10° N 02:25:38 34° WNW 02:29:30 13° SW
CZ-2D R/B 3.8 02:22:33 10° NNW 02:26:22 20° WNW 02:30:12 10° WSW
NOSS 3-2 (A) 4.2 02:21:39 10° S 02:26:59 45° ESE 02:32:59 10° NE
Cosmos 2082 Rocket 2.7 02:22:31 14° SW 02:27:15 50° WNW 02:32:50 10° NNE
CZ-4C R/B 3.5 02:24:06 10° SSE 02:27:15 55° ENE 02:30:23 10° N
Cosmos 1763 Rocket 3.5 02:25:27 10° NNW 02:30:43 74° WSW 02:35:59 10° SSE
Cosmos 1833 Rocket 3.9 02:26:35 11° WSW 02:31:18 30° NW 02:36:15 10° N
ERS-2 2.3 02:30:07 10° SSE 02:33:44 76° ENE 02:37:23 10° N
Meteor 1-28 Rocket 3.6 02:31:35 10° S 02:35:07 42° W 02:38:41 10° NNW
SL-19 R/B 4.0 02:35:46 10° NNE 02:38:41 65° ESE 02:41:51 10° S
Okean 2 3.4 02:34:41 10° N 02:38:48 83° E 02:42:52 10° S
Cosmos 468 Rocket 4.2 02:36:44 10° NNW 02:41:53 51° WSW 02:47:00 10° S
Cosmos 1570 Rocket 4.1 02:38:47 10° NNW 02:44:05 84° ENE 02:49:23 10° SSE
CZ-2D R/B 3.7 02:40:03 10° N 02:44:23 63° WNW 02:48:35 10° SSW
Cosmos 1271 Rocket 2.6 02:43:17 10° NNW 02:47:04 75° W 02:50:47 10° S
ERBS 3.9 02:47:59 10° S 02:50:47 26° SE 02:53:36 10° ENE
Cosmos 1850 Rocket 4.4 02:46:47 10° SW 02:51:59 52° WNW 02:57:13 10° NNE
Cosmos 2322 Rocket 2.8 02:47:14 10° NNW 02:52:53 65° ENE 02:58:31 10° SE
Meteor 2-9 Rocket 4.2 02:51:24 10° S 02:56:43 88° E 03:02:06 10° N
ARIANE 5 R/B 3.2 02:53:15 10° N 02:57:57 39° WNW 03:02:40 10° SW
Cosmos 841 Rocket 3.5 02:53:09 10° NNW 02:58:20 79° WSW 03:03:31 10° SSE
Cosmos 540 Rocket 3.5 02:53:22 10° NNW 02:58:33 83° WSW 03:03:41 10° SSE
Cosmos 1782 Rocket 3.6 02:54:22 10° SSW 02:58:47 67° W 03:03:12 10° N
Cosmos 1544 3.5 03:00:53 10° SSW 03:04:18 42° WNW 03:07:45 10° N
ADEOS II 3.6 03:00:24 10° NNW 03:04:21 22° WNW 03:08:16 10° WSW
USA 238 DEB 3.8 02:59:26 10° SSW 03:06:05 81° SE 03:13:00 10° NE
USA 238 3.8 02:59:33 10° SSW 03:06:10 81° SE 03:13:05 10° NE
Cosmos 1818 3.9 03:02:18 10° NW 03:07:28 44° WSW 03:12:35 10° S
